Vorticity
9 9 9 9 8 7 7 5 5 4 4 5 7 9 12 14 16 15 13 11 11 11 12 13 13 14 16 18 20 20 19 17 16 15 14 14 15 16 17 19 21 22 22 21 19 18 16 16 16 17 18 18 18 17 18 19 21 21 21 18 17 17 19 20 21 22 22 21 20
9 8 8 8 8 8 7 6 6 6 7 8 10 12 14 16 15 13 11 10 11 12 12 11 10 10 10 13 17 19 20 20 18 16 14 15 15 16 17 18 20 21 21 21 20 19 18 17 18 18 19 20 19 18 19 20 21 21 18 12 7 9 14 19 20 19 18 17 18
8 8 8 8 8 8 7 7 8 9 10 11 12 13 14 15 13 12 11 11 12 13 13 13 12 10 10 10 13 16 19 21 20 18 16 16 16 16 16 17 18 19 20 20 20 19 19 18 19 20 21 21 20 20 20 20 21 20 17 8 2 1 4 11 17 18 16 14 14
8 8 8 8 8 8 8 8 9 10 11 12 12 13 13 13 12 11 10 10 11 14 17 20 20 19 18 17 17 18 19 20 20 20 19 18 17 17 16 16 17 18 19 19 19 19 19 19 19 20 21 22 21 21 20 21 21 20 17 10 3 -3 -4 -0 11 18 21 19 12
8 8 8 7 7 7 8 8 9 9 10 11 11 12 12 12 11 10 9 8 11 17 22 26 27 28 29 30 29 27 23 21 20 20 21 21 20 18 17 17 17 18 18 18 17 17 18 18 19 20 22 22 22 21 21 21 20 18 16 12 8 1 -3 -4 7 22 33 36 16
7 7 8 7 7 7 8 8 8 9 9 9 10 11 11 11 10 9 8 8 13 19 22 23 23 25 28 33 36 34 29 22 19 18 19 21 21 20 20 19 19 19 19 18 18 17 16 16 18 20 21 22 22 21 20 20 19 17 15 13 10 7 5 4 16 31 42 39 20
8 8 8 8 8 8 8 8 8 8 8 8 9 10 11 11 10 8 8 10 16 18 18 15 14 15 18 23 30 33 31 23 16 14 14 17 19 20 21 21 22 22 22 21 19 17 16 17 18 20 21 22 23 23 22 21 19 17 14 12 11 10 11 16 30 38 38 29 32
8 8 8 9 9 9 9 8 8 7 7 7 9 10 10 10 9 8 8 12 16 15 12 9 7 9 12 16 20 26 29 27 19 14 13 13 17 19 21 22 22 23 23 22 20 20 19 19 19 19 20 23 25 27 27 24 21 18 15 13 13 12 14 20 34 36 33 31 34
8 9 9 10 10 10 9 9 8 7 7 7 8 9 10 9 8 7 9 12 13 11 8 8 7 7 9 14 16 21 27 32 28 23 19 17 19 21 23 22 21 21 21 21 21 22 22 21 20 20 21 24 26 27 27 25 23 21 19 18 18 18 17 18 25 29 27 21 17
8 9 10 10 11 11 10 9 8 7 7 8 9 9 9 8 7 7 8 11 10 9 8 11 13 12 10 12 14 19 26 35 35 31 27 24 24 25 25 23 20 17 16 18 19 21 22 22 22 22 23 25 27 27 26 26 26 25 25 25 26 24 20 17 19 18 14 10 15
9 10 10 11 11 11 11 10 9 8 8 9 9 9 9 8 7 6 7 9 9 9 9 12 18 19 18 16 17 19 23 31 36 35 32 27 25 24 23 19 15 13 12 12 12 12 14 16 19 21 24 29 32 32 32 32 30 27 25 24 25 24 20 16 11 11 16 22 27
9 10 10 11 11 11 11 10 10 10 10 10 10 9 8 8 7 6 7 8 9 9 9 10 15 19 21 22 22 21 20 23 30 33 32 28 25 21 17 13 11 10 9 8 5 4 5 9 14 18 24 32 37 36 34 35 31 26 23 23 24 24 23 20 19 24 31 35 33
9 10 10 10 11 11 10 10 10 11 11 11 10 9 8 7 6 6 6 7 8 8 7 6 7 12 17 21 25 24 21 19 25 28 29 28 25 22 18 16 13 10 8 6 4 3 5 10 18 21 22 21 34 33 27 26 30 31 31 32 34 36 36 34 35 34 32 29 24
9 9 9 9 10 10 10 10 11 11 12 11 10 9 8 8 7 6 6 6 7 8 7 4 3 5 10 14 20 23 24 22 26 28 29 28 26 24 21 19 15 10 6 5 7 10 15 22 35 35 29 26 32 26 17 15 24 30 34 36 39 41 41 39 32 24 18 15 12
9 8 8 8 9 10 10 10 11 12 12 12 11 10 9 8 7 7 6 6 7 8 7 5 3 3 4 6 11 16 20 22 24 27 29 32 34 35 35 32 25 20 19 22 28 32 38 44 47 40 32 30 28 21 13 10 14 18 21 23 24 25 25 22 16 12 10 11 10
8 8 8 8 9 10 10 11 11 12 12 12 12 11 10 9 8 7 7 7 8 9 9 9 5 3 2 3 4 6 9 11 13 16 21 28 36 46 55 59 57 55 53 53 53 51 47 41 32 27 25 24 20 15 11 9 8 7 6 6 6 7 7 8 9 10 11 12 11
8 8 8 9 10 10 11 11 11 12 12 13 13 12 11 9 8 8 7 8 8 9 10 11 9 6 4 3 2 1 0 0 1 5 10 18 27 38 47 55 56 54 50 46 40 33 24 15 12 13 15 15 12 10 9 8 7 5 4 3 3 4 5 6 9 10 11 10 9
9 9 10 10 10 11 11 11 12 12 13 14 14 14 12 10 9 8 8 9 8 9 10 12 12 10 8 5 4 2 1 -0 -0 1 3 9 15 20 22 21 16 12 11 11 11 9 6 2 3 5 8 9 7 6 5 6 7 9 10 11 11 11 11 10 10 10 10 9 6
9 10 11 11 10 10 11 11 12 12 13 14 15 14 13 12 10 9 9 9 9 9 9 11 12 12 10 7 6 5 4 3 3 2 2 3 6 8 8 5 2 -0 -1 -1 2 4 5 3 2 2 4 6 5 4 5 8 10 12 14 17 18 18 17 15 12 11 10 8 5
10 11 11 10 9 9 9 10 11 12 13 14 15 15 14 13 11 10 10 10 10 10 9 10 11 12 11 8 7 5 5 5 6 5 3 1 3 4 5 3 2 1 1 2 3 4 5 5 4 3 3 4 5 7 10 13 12 12 12 13 17 19 21 19 15 13 12 11 9
11 11 10 8 7 7 8 9 11 12 13 15 15 15 15 13 12 11 10 11 11 11 10 9 11 12 11 10 8 6 5 4 6 6 5 3 3 4 5 5 4 4 4 4 4 4 4 5 5 4 3 2 4 9 14 14 11 10 10 7 11 16 19 19 16 15 15 16 15
11 11 9 6 5 5 6 8 10 12 13 14 15 15 15 14 13 12 11 11 12 11 11 10 10 11 12 12 10 8 6 5 5 5 6 6 6 6 7 7 6 5 4 5 5 5 5 7 8 7 6 6 6 10 13 10 8 8 8 5 7 9 11 12 13 13 14 17 17
10 10 8 5 4 4 5 7 9 11 13 15 15 16 16 15 14 13 13 12 12 12 12 11 11 11 12 13 12 10 9 7 6 6 7 8 9 8 8 7 6 5 5 5 5 6 7 9 9 8 9 11 10 8 6 5 5 6 5 4 3 2 1 3 6 9 11 12 10
10 9 7 4 3 3 4 5 7 9 12 14 15 16 16 16 16 15 14 13 13 13 12 12 12 12 12 14 14 13 12 10 9 8 8 9 10 9 9 7 6 5 4 4 5 6 8 10 11 10 10 9 8 3 -1 1 7 8 5 3 1 4 7 8 7 7 7 5 3
9 8 6 3 3 3 2 2 3 6 10 13 15 16 16 16 16 16 15 14 14 13 13 14 14 13 13 15 16 16 15 14 13 12 11 10 10 9 8 7 6 5 4 4 5 5 7 8 10 12 12 11 8 3 1 2 11 13 9 2 -3 1 8 14 13 11 10 8 8
8 7 5 3 2 2 2 1 1 4 8 12 14 14 15 15 15 15 15 15 15 15 15 15 15 15 15 16 18 18 18 18 17 16 15 13 11 10 8 7 6 6 5 5 4 5 5 6 8 9 11 13 13 12 12 12 17 17 12 2 -6 -7 -3 5 8 10 12 12 12
7 6 5 3 3 3 3 2 1 3 7 12 13 14 14 13 13 13 14 15 15 15 16 16 17 16 16 15 16 16 16 16 17 18 18 17 14 12 10 8 8 7 7 6 5 5 5 6 7 8 8 8 10 13 17 20 21 19 14 5 -2 -6 -7 -5 -2 2 6 8 6
7 7 6 4 4 5 5 4 2 4 8 11 13 14 14 12 12 12 12 14 15 15 15 16 16 15 13 11 10 9 9 9 11 13 15 17 17 15 13 10 10 9 8 7 6 6 6 7 8 8 7 6 6 9 13 16 17 16 15 10 5 0 -3 -5 -5 -2 1 2 1
8 8 8 7 8 8 8 6 5 6 9 11 13 14 15 13 11 11 11 12 13 13 14 15 14 11 8 6 4 3 3 3 5 7 9 12 15 15 15 13 12 11 10 8 7 7 8 9 9 9 8 5 5 6 7 6 8 10 12 12 10 7 4 1 0 -0 0 1 2
10 10 10 11 11 11 10 10 10 11 11 11 11 14 17 16 12 10 10 10 11 12 13 14 12 9 7 4 1 0 1 3 5 6 7 8 10 12 13 14 14 13 12 10 8 7 8 10 11 11 10 7 5 4 3 1 1 3 5 7 7 7 6 5 4 3 2 2 2
12 13 13 13 12 12 12 12 14 14 13 9 7 10 16 18 12 9 7 7 8 10 11 11 11 10 8 4 2 2 3 6 10 13 14 12 10 9 9 11 12 13 12 12 10 9 10 12 13 14 13 10 7 4 2 0 -0 -0 1 1 2 4 7 9 9 9 9 9 8
16 15 14 11 12 13 13 12 13 14 12 6 0 1 6 12 8 5 4 4 7 9 11 11 11 10 8 7 6 5 5 7 13 18 22 22 16 11 8 8 10 11 12 14 14 14 14 15 16 16 16 15 12 8 3 0 -2 -3 -3 -2 3 10 18 26 28 27 24 21 19
16 14 10 9 13 13 11 9 10 11 10 7 0 -3 -3 -0 1 1 2 4 8 10 13 14 13 12 10 9 8 5 4 6 12 18 23 26 23 18 12 9 9 10 12 14 15 14 14 14 15 16 17 16 14 10 6 2 -0 -1 1 8 20 30 37 41 39 38 36 34 30
13 9 7 9 15 14 10 7 9 9 9 9 7 2 -4 -6 -5 -2 1 6 10 14 19 24 23 19 14 9 4 2 3 8 13 16 20 22 23 21 17 12 11 10 11 11 10 9 9 11 13 14 14 14 12 11 10 8 7 11 20 35 41 42 38 33 29 30 34 40 39
10 6 5 11 15 13 9 9 11 12 11 11 11 7 3 -2 -3 0 6 11 13 17 23 32 30 25 18 9 3 2 6 14 17 18 19 20 24 24 20 15 12 11 11 11 7 5 5 8 11 13 13 13 13 14 15 16 22 31 38 37 26 21 20 19 17 19 25 34 37
10 6 5 9 11 10 9 11 13 15 15 15 13 11 8 6 7 11 14 16 14 16 22 30 28 23 16 7 2 4 10 19 21 21 22 23 28 29 25 17 14 14 14 12 7 5 5 8 11 13 14 16 18 20 23 27 33 35 28 10 -0 1 7 10 9 11 16 24 27
8 6 5 5 6 8 10 12 15 18 21 22 21 19 18 19 21 22 22 18 12 12 15 17 15 12 6 -3 -2 3 12 22 22 20 20 22 27 28 26 19 17 17 17 16 12 9 8 10 12 14 16 18 21 24 27 30 32 29 18 1 -4 -2 4 7 6 8 12 18 20
5 5 4 3 6 10 13 15 18 21 25 28 29 29 29 29 30 28 25 19 12 10 8 3 5 5 2 -6 -4 2 10 22 21 17 14 15 17 18 18 17 17 18 18 16 14 12 11 11 14 17 20 22 23 24 25 26 26 24 17 8 4 5 8 9 10 13 15 17 16
4 4 3 2 9 15 19 17 19 23 25 26 26 25 23 21 22 22 21 20 17 14 8 -2 -2 -2 -3 -7 -5 2 11 21 22 18 12 8 8 7 7 7 8 9 8 6 6 8 10 14 19 22 23 22 20 19 19 19 19 18 16 14 12 12 11 11 12 12 12 12 11
4 3 2 0 10 18 21 18 19 20 19 13 9 7 5 5 8 11 14 19 22 22 18 6 -3 -8 -8 -6 -1 7 16 26 28 26 20 15 12 8 5 1 -0 -1 -2 -3 0 7 15 22 24 23 20 16 14 13 12 12 12 12 12 12 12 12 11 9 9 8 8 8 8
5 2 -0 -1 9 16 19 15 17 16 11 1 -3 -3 -1 2 3 6 9 15 21 25 26 21 9 3 2 7 13 20 27 33 35 35 32 30 28 25 21 15 11 9 9 10 16 22 26 26 23 18 14 10 10 9 10 10 11 11 10 10 9 9 7 6 6 6 7 8 9
Height
3044 3043 3042 3041 3040 3039 3039 3038 3037 3035 3034 3033 3031 3030 3029 3027 3025 3024 3022 3020 3018 3016 3014 3012 3010 3008 3006 3004 3002 3000 2998 2996 2994 2993 2991 2989 2988 2987 2987 2986 2985 2985 2984 2984 2984 2984 2985 2986 2986 2987 2988 2989 2990 2991 2993 2994 2996 2998 3000 3002 3004 3006 3007 3009 3010 3012 3014 3015 3017
3043 3042 3041 3040 3039 3038 3037 3037 3036 3034 3033 3032 3030 3029 3027 3025 3024 3022 3020 3019 3017 3015 3012 3010 3008 3006 3004 3002 3000 2998 2996 2994 2993 2991 2989 2988 2987 2986 2985 2984 2984 2983 2983 2983 2983 2983 2983 2984 2984 2985 2986 2987 2988 2989 2990 2992 2994 2996 2998 3000 3003 3004 3006 3007 3008 3009 3011 3013 3016
3042 3041 3040 3039 3038 3037 3036 3035 3034 3034 3032 3031 3029 3028 3026 3024 3023 3021 3019 3018 3016 3014 3011 3008 3006 3004 3002 3000 2998 2996 2994 2992 2990 2989 2988 2987 2985 2984 2983 2983 2982 2982 2982 2981 2981 2981 2982 2982 2983 2983 2984 2985 2986 2987 2989 2990 2992 2994 2996 2998 3001 3002 3004 3005 3006 3007 3009 3011 3014
3041 3040 3039 3039 3037 3036 3035 3034 3033 3032 3031 3029 3028 3027 3025 3023 3022 3020 3018 3017 3015 3012 3009 3006 3004 3002 2999 2998 2996 2994 2992 2990 2989 2987 2986 2985 2984 2983 2982 2981 2981 2980 2980 2980 2980 2980 2980 2981 2981 2981 2982 2983 2984 2985 2987 2988 2990 2992 2994 2996 2999 3000 3001 3003 3004 3005 3007 3009 3011
3041 3039 3039 3038 3037 3036 3035 3034 3032 3031 3029 3028 3027 3025 3024 3022 3021 3019 3017 3015 3013 3010 3008 3004 3002 3000 2998 2995 2993 2992 2990 2989 2987 2986 2984 2984 2982 2981 2981 2980 2979 2979 2979 2979 2979 2979 2979 2979 2979 2980 2981 2982 2983 2984 2985 2986 2988 2989 2992 2994 2996 2998 2999 3000 3002 3003 3004 3006 3007
3040 3039 3038 3037 3036 3035 3034 3033 3031 3030 3028 3027 3026 3024 3023 3021 3020 3018 3016 3014 3012 3009 3006 3004 3001 2999 2996 2994 2991 2989 2988 2987 2986 2984 2983 2982 2981 2980 2979 2979 2978 2978 2978 2977 2977 2977 2978 2978 2979 2979 2979 2980 2981 2982 2983 2984 2986 2988 2990 2992 2994 2996 2997 2999 3000 3001 3002 3004 3005
3039 3038 3037 3036 3035 3034 3033 3032 3030 3029 3027 3026 3024 3023 3022 3020 3019 3018 3015 3013 3010 3008 3005 3003 3000 2998 2995 2993 2990 2988 2987 2985 2984 2984 2982 2981 2980 2979 2978 2977 2977 2977 2976 2976 2976 2976 2977 2977 2977 2977 2978 2979 2979 2980 2982 2983 2984 2986 2988 2990 2992 2994 2996 2998 2999 3000 3001 3003 3005
3038 3037 3036 3035 3034 3033 3032 3030 3029 3028 3026 3025 3024 3023 3021 3020 3019 3017 3015 3013 3010 3007 3005 3003 3000 2998 2995 2993 2990 2988 2986 2984 2983 2983 2981 2980 2979 2978 2977 2977 2976 2976 2975 2975 2975 2975 2976 2976 2976 2976 2977 2978 2978 2979 2980 2982 2984 2985 2987 2989 2991 2993 2995 2997 2998 2999 3001 3003 3004
3038 3037 3036 3034 3034 3032 3031 3029 3028 3026 3025 3024 3023 3022 3020 3019 3018 3016 3014 3012 3009 3007 3005 3003 3000 2998 2995 2993 2990 2988 2985 2984 2982 2981 2980 2979 2978 2977 2976 2976 2975 2975 2974 2974 2974 2974 2975 2975 2975 2976 2976 2977 2978 2979 2980 2981 2983 2984 2986 2988 2989 2992 2994 2996 2997 2998 3001 3003 3004
3037 3036 3035 3034 3033 3031 3030 3029 3027 3026 3024 3023 3022 3021 3020 3019 3017 3016 3014 3012 3009 3007 3005 3002 2999 2997 2995 2993 2990 2988 2985 2983 2981 2980 2979 2978 2977 2976 2976 2975 2974 2974 2974 2974 2974 2974 2974 2974 2974 2975 2976 2976 2977 2978 2979 2981 2983 2984 2985 2987 2989 2991 2994 2995 2996 2998 3000 3002 3003
3036 3035 3034 3033 3032 3031 3029 3028 3026 3025 3024 3023 3022 3021 3019 3018 3017 3015 3014 3011 3009 3007 3005 3002 3000 2997 2994 2992 2990 2987 2985 2983 2981 2979 2978 2977 2976 2976 2975 2975 2974 2974 2974 2974 2974 2974 2974 2974 2974 2975 2975 2975 2977 2978 2979 2981 2983 2984 2985 2987 2989 2991 2993 2995 2996 2998 2999 3001 3002
3036 3034 3034 3032 3031 3030 3029 3027 3025 3024 3023 3022 3021 3020 3019 3018 3016 3015 3013 3011 3009 3007 3005 3003 3000 2997 2995 2992 2990 2988 2986 2983 2981 2979 2978 2977 2976 2975 2974 2974 2974 2973 2973 2973 2973 2973 2973 2974 2974 2975 2974 2973 2976 2979 2980 2981 2983 2984 2985 2987 2989 2991 2993 2994 2996 2997 2999 3000 3001
3035 3034 3033 3032 3030 3029 3028 3026 3024 3023 3022 3021 3020 3019 3019 3017 3016 3014 3013 3011 3009 3007 3005 3003 3000 2998 2995 2993 2991 2989 2987 2984 2982 2979 2978 2977 2975 2974 2974 2974 2973 2973 2973 2973 2973 2973 2973 2974 2974 2974 2974 2973 2977 2980 2981 2981 2982 2983 2984 2986 2988 2990 2991 2993 2995 2997 2998 2999 3000
3034 3033 3032 3031 3029 3028 3027 3025 3024 3023 3021 3020 3019 3019 3018 3017 3015 3014 3013 3011 3009 3007 3005 3003 3001 2999 2996 2994 2992 2990 2988 2985 2983 2980 2979 2977 2976 2975 2974 2974 2974 2974 2974 2974 2974 2974 2974 2974 2974 2974 2974 2974 2979 2981 2981 2982 2982 2983 2984 2985 2987 2988 2990 2992 2994 2996 2998 2999 3000
3034 3033 3031 3030 3029 3028 3026 3024 3023 3022 3021 3019 3019 3018 3017 3016 3015 3014 3012 3011 3009 3007 3005 3003 3001 2999 2998 2996 2994 2991 2989 2987 2985 2982 2980 2979 2977 2976 2975 2975 2974 2974 2974 2974 2974 2974 2974 2975 2975 2975 2976 2978 2981 2982 2983 2983 2984 2984 2985 2986 2987 2989 2990 2992 2994 2996 2998 2999 3001
3033 3032 3031 3029 3028 3027 3025 3024 3023 3021 3020 3019 3018 3018 3017 3016 3014 3013 3012 3010 3009 3007 3005 3003 3002 3000 2999 2997 2995 2993 2991 2989 2987 2985 2983 2981 2979 2977 2976 2975 2975 2974 2974 2974 2975 2976 2977 2977 2978 2978 2979 2981 2983 2984 2984 2985 2986 2986 2987 2988 2989 2990 2992 2994 2995 2997 2998 3000 3002
3033 3031 3030 3029 3027 3026 3025 3023 3022 3021 3019 3019 3018 3017 3016 3015 3014 3013 3012 3010 3009 3007 3005 3003 3002 3000 2999 2998 2996 2994 2993 2991 2989 2988 2985 2984 2982 2980 2979 2978 2977 2977 2977 2977 2978 2979 2979 2980 2981 2981 2982 2983 2984 2985 2986 2986 2987 2988 2989 2990 2991 2992 2994 2995 2996 2998 2999 3001 3003
3032 3031 3030 3028 3027 3025 3024 3023 3021 3020 3019 3018 3017 3017 3016 3015 3014 3012 3011 3010 3008 3007 3005 3003 3002 3000 2999 2999 2997 2995 2994 2992 2991 2989 2988 2986 2985 2984 2983 2982 2981 2981 2981 2981 2981 2982 2982 2983 2983 2984 2984 2984 2986 2987 2987 2988 2989 2989 2990 2991 2992 2994 2994 2996 2997 2999 3000 3002 3004
3031 3030 3029 3028 3026 3025 3024 3022 3021 3020 3019 3018 3017 3016 3015 3014 3013 3012 3010 3009 3008 3006 3005 3003 3002 3000 3000 2999 2998 2996 2995 2994 2992 2991 2990 2989 2988 2986 2986 2985 2985 2984 2984 2984 2984 2985 2985 2985 2985 2985 2986 2987 2987 2988 2989 2989 2990 2991 2991 2992 2993 2994 2995 2996 2998 2999 3001 3003 3004
3030 3029 3029 3027 3026 3024 3023 3022 3021 3019 3019 3017 3016 3015 3014 3014 3013 3011 3010 3009 3008 3006 3005 3003 3002 3001 2999 2999 2998 2997 2996 2995 2994 2993 2992 2990 2989 2989 2988 2988 2987 2987 2986 2986 2986 2987 2987 2987 2988 2988 2988 2989 2989 2989 2990 2991 2992 2992 2993 2993 2994 2995 2996 2997 2999 3000 3002 3003 3004
3030 3029 3028 3027 3025 3024 3023 3021 3020 3019 3018 3017 3016 3015 3014 3013 3012 3011 3009 3008 3007 3006 3004 3003 3002 3001 3000 2999 2998 2998 2997 2996 2995 2994 2993 2992 2991 2990 2990 2989 2989 2989 2988 2988 2988 2988 2988 2989 2989 2990 2990 2990 2990 2990 2991 2992 2993 2994 2995 2995 2995 2996 2997 2998 3000 3001 3002 3003 3004
3029 3029 3028 3026 3025 3024 3022 3021 3020 3019 3018 3017 3016 3015 3014 3013 3011 3010 3009 3008 3007 3006 3004 3003 3002 3001 3000 2999 2998 2998 2997 2997 2996 2995 2995 2994 2993 2992 2992 2991 2990 2990 2989 2989 2989 2989 2989 2990 2990 2990 2991 2992 2991 2991 2992 2994 2995 2996 2996 2997 2997 2998 2998 2999 3000 3001 3002 3003 3004
3029 3028 3027 3026 3024 3023 3022 3021 3020 3019 3018 3016 3015 3014 3013 3012 3011 3010 3009 3007 3006 3005 3004 3003 3002 3001 3000 2999 2998 2998 2997 2997 2997 2996 2996 2995 2994 2994 2993 2992 2992 2991 2991 2990 2990 2990 2990 2990 2991 2991 2992 2993 2993 2993 2993 2994 2995 2996 2997 2997 2998 2999 3000 3000 3001 3001 3002 3003 3004
3028 3027 3026 3025 3024 3023 3021 3020 3019 3018 3017 3016 3015 3014 3013 3012 3011 3010 3009 3007 3006 3005 3004 3003 3002 3001 3000 2999 2999 2998 2997 2997 2997 2996 2996 2996 2995 2995 2994 2994 2993 2993 2992 2992 2992 2991 2991 2991 2992 2992 2992 2993 2994 2994 2994 2994 2995 2996 2997 2998 2999 3000 3001 3001 3002 3002 3003 3004 3005
3028 3027 3026 3025 3024 3022 3021 3020 3019 3018 3017 3016 3015 3014 3013 3012 3011 3010 3009 3007 3006 3005 3004 3003 3002 3001 3000 2999 2999 2998 2998 2997 2997 2996 2996 2996 2996 2996 2995 2995 2994 2994 2994 2993 2993 2993 2993 2993 2993 2993 2993 2993 2994 2994 2994 2994 2995 2996 2997 2998 2999 3000 3001 3002 3002 3003 3004 3004 3005
3027 3026 3025 3024 3023 3021 3020 3019 3019 3018 3017 3016 3015 3014 3013 3012 3011 3010 3009 3008 3006 3005 3004 3003 3002 3001 3001 3000 2999 2999 2998 2997 2997 2997 2997 2996 2996 2996 2996 2996 2996 2995 2995 2995 2994 2994 2994 2994 2994 2994 2994 2994 2994 2994 2994 2995 2995 2996 2997 2998 2999 2999 3000 3001 3002 3003 3004 3004 3005
3027 3026 3025 3024 3023 3021 3020 3019 3018 3017 3016 3015 3014 3014 3013 3012 3011 3010 3009 3008 3006 3005 3004 3004 3002 3001 3001 3000 3000 2999 2998 2998 2997 2997 2997 2997 2997 2996 2996 2996 2996 2996 2996 2996 2995 2995 2995 2995 2994 2994 2994 2995 2995 2995 2995 2995 2996 2997 2998 2998 2999 2999 3000 3001 3002 3002 3003 3004 3004
3026 3025 3024 3024 3022 3021 3020 3019 3018 3017 3016 3015 3014 3013 3012 3011 3011 3010 3009 3008 3007 3006 3005 3004 3003 3002 3001 3000 3000 2999 2999 2998 2998 2997 2997 2997 2997 2996 2996 2996 2997 2997 2997 2996 2996 2996 2996 2996 2995 2995 2995 2996 2996 2996 2996 2996 2997 2998 2998 2999 2999 3000 3000 3001 3001 3002 3003 3004 3004
3025 3024 3024 3023 3022 3021 3020 3019 3018 3017 3016 3015 3014 3013 3012 3011 3010 3009 3009 3008 3007 3006 3005 3004 3003 3002 3001 3001 3000 2999 2999 2999 2998 2997 2997 2997 2997 2996 2996 2996 2996 2997 2997 2997 2996 2996 2996 2996 2996 2996 2996 2996 2996 2997 2997 2997 2998 2999 2999 3000 3000 3000 3001 3001 3002 3002 3003 3003 3004
3024 3024 3023 3023 3022 3021 3019 3019 3018 3017 3016 3015 3014 3013 3012 3011 3010 3009 3009 3008 3007 3006 3006 3005 3004 3003 3002 3001 3000 2999 2999 2999 2998 2998 2997 2997 2996 2996 2996 2996 2996 2996 2997 2996 2996 2996 2996 2997 2997 2997 2997 2997 2997 2997 2997 2998 2999 2999 3000 3000 3001 3001 3001 3001 3002 3002 3003 3003 3004
3024 3023 3023 3022 3021 3020 3019 3018 3017 3016 3015 3014 3014 3013 3012 3011 3010 3009 3009 3008 3007 3007 3006 3005 3004 3003 3002 3001 3000 3000 2999 2999 2998 2998 2997 2997 2996 2996 2996 2996 2996 2996 2996 2996 2996 2996 2996 2997 2997 2997 2997 2997 2997 2998 2998 2999 2999 2999 3000 3000 3001 3001 3002 3002 3002 3002 3003 3003 3004
3023 3022 3022 3021 3020 3019 3018 3017 3016 3015 3014 3014 3013 3012 3012 3011 3010 3009 3008 3008 3007 3007 3006 3005 3004 3003 3002 3001 3000 2999 2999 2998 2997 2997 2997 2996 2996 2996 2996 2995 2995 2995 2995 2995 2996 2996 2996 2996 2996 2996 2996 2997 2997 2998 2999 2999 2999 2999 3000 3000 3001 3001 3001 3001 3001 3002 3002 3002 3003
3022 3022 3021 3021 3020 3019 3018 3017 3016 3015 3014 3013 3013 3012 3011 3010 3009 3009 3008 3007 3006 3006 3005 3004 3004 3003 3002 3001 3000 2999 2998 2998 2997 2996 2996 2996 2996 2996 2995 2995 2995 2995 2995 2995 2995 2995 2995 2995 2996 2996 2996 2997 2997 2998 2998 2999 2999 2999 2999 3000 3000 3000 3000 3000 3000 3000 3000 3001 3001
3022 3021 3021 3020 3019 3018 3017 3016 3015 3014 3013 3013 3012 3012 3011 3010 3009 3008 3008 3007 3006 3005 3004 3004 3003 3002 3001 3000 2999 2999 2998 2998 2997 2996 2996 2996 2996 2996 2996 2995 2995 2996 2995 2995 2995 2995 2995 2995 2995 2996 2996 2996 2997 2997 2998 2998 2998 2999 2999 2999 2999 2999 2999 2999 2999 2999 2999 2999 3000
3022 3021 3021 3020 3019 3018 3016 3015 3014 3013 3013 3012 3011 3011 3010 3009 3009 3008 3007 3006 3005 3005 3004 3003 3002 3001 3000 3000 2999 2999 2999 2998 2997 2996 2996 2996 2996 2996 2996 2996 2996 2996 2996 2995 2995 2995 2995 2995 2995 2996 2996 2997 2997 2997 2997 2998 2998 2998 2999 2999 2999 3000 3000 3000 3000 3000 3000 3000 3000
3022 3021 3020 3019 3019 3017 3016 3015 3014 3013 3012 3011 3011 3010 3010 3009 3008 3007 3007 3006 3005 3005 3004 3003 3002 3001 3001 2999 2999 2999 2999 2999 2998 2997 2997 2997 2997 2997 2997 2997 2996 2996 2996 2995 2995 2995 2995 2995 2995 2995 2995 2996 2996 2997 2997 2997 2998 2998 2999 2999 3000 3001 3002 3003 3003 3002 3002 3002 3002
3022 3021 3020 3019 3019 3017 3016 3015 3014 3013 3012 3011 3010 3010 3009 3009 3008 3007 3007 3006 3005 3005 3004 3004 3003 3002 3001 3000 2999 3000 3000 2999 2999 2999 2998 2997 2997 2997 2997 2997 2996 2996 2996 2995 2995 2994 2995 2995 2995 2995 2995 2995 2996 2996 2997 2997 2997 2998 2999 2999 3000 3001 3001 3002 3002 3003 3003 3004 3004
3021 3021 3020 3019 3018 3017 3016 3015 3014 3012 3011 3010 3010 3009 3009 3009 3008 3007 3007 3006 3006 3006 3005 3005 3004 3003 3001 3000 3000 3000 3000 3000 3000 2999 2999 2998 2998 2998 2998 2998 2997 2997 2996 2996 2995 2995 2995 2995 2995 2996 2996 2996 2996 2997 2997 2997 2998 2998 2999 3000 3000 3001 3001 3002 3003 3003 3004 3004 3005
3021 3020 3019 3019 3018 3017 3016 3015 3014 3013 3011 3010 3010 3009 3009 3008 3008 3007 3007 3006 3006 3005 3005 3005 3004 3003 3001 3000 3000 3000 3000 3000 3000 3000 2999 2999 2998 2998 2998 2998 2998 2998 2998 2997 2996 2996 2996 2996 2996 2996 2997 2997 2997 2998 2998 2999 2999 2999 3000 3000 3001 3002 3002 3003 3004 3004 3005 3005 3006
3021 3020 3019 3018 3017 3017 3016 3015 3014 3013 3012 3011 3010 3010 3009 3009 3008 3007 3007 3006 3005 3005 3005 3004 3004 3003 3002 3001 3001 3000 3000 3000 3000 3000 2999 2999 2999 2998 2998 2998 2998 2998 2997 2997 2996 2996 2997 2997 2997 2997 2998 2998 2999 2999 2999 3000 3000 3001 3001 3002 3002 3003 3003 3004 3004 3005 3006 3006 3007
3020 3019 3019 3018 3017 3016 3016 3015 3014 3013 3012 3011 3010 3010 3009 3009 3008 3007 3007 3006 3005 3005 3004 3004 3004 3003 3003 3002 3002 3001 3001 3000 3000 2999 2999 2999 2999 2998 2998 2998 2997 2997 2997 2997 2997 2997 2997 2997 2998 2998 2999 2999 3000 3000 3001 3001 3001 3002 3002 3003 3003 3004 3004 3005 3005 3006 3007 3007 3008